[[{"header":{"parameterUnit":"m.s-1","parameterCategory":1,"la1":30.2991,"la2":30.254,"lo1":-89.0895,"lo2":-89.0444,"dy":0.0017,"dx":0.0017,"nx":28,"ny":28,"refTime":"2025-03-18T21:00:00:Z","depth":0,"parameterNumber":2,"parameterNumberName":"U-component_of_WINDS"},"data":[0,0,0,0,0,0,0,0,0,0,0,0,0,0,0,0,0,0,0,0,0,0,0,0,0,0,0,0,0,0,0,0,0,0,0,0,0,0,0,0,0,0,0,0,0,0,0,0,0,0,0,0,0,0,0,0,0,0,1.4628,1.4629,0,1.4719,1.472,1.4721,1.4733,1.4732,1.4731,1.473,1.4828,1.4831,1.4834,0,0,0,0,0,0,0,0,0,0,0,0,0,1.447,1.4473,1.4628,1.4629,1.463,1.4719,1.472,1.4721,1.4733,1.4732,1.4731,1.473,1.4827,1.4831,1.4835,0,0,0,0,0,0,0,0,0,0,0,0,0,1.4548,1.4474,1.4628,1.4647,1.4649,1.4718,1.472,1.4722,1.4733,1.4732,1.473,1.4729,1.4825,1.483,1.4835,1.4894,0,0,1.4851,1.4853,0,0,0,0,0,0,0,0,1.4543,1.4554,1.4643,1.4645,1.4648,1.4713,1.47,1.4779,1.4733,1.4701,1.473,1.4728,1.4791,1.4799,1.4819,1.4898,1.4902,1.4851,1.4855,1.4857,1.4858,0,0,0,0,0,0,0,1.4538,1.455,1.4664,1.4644,1.4647,1.4652,1.4662,1.4715,1.4753,1.4704,1.4705,1.4715,1.4792,1.4814,1.4821,1.4904,1.4851,1.4856,1.4859,1.4861,1.5039,1.5041,0,0,0,0,0,0,1.4528,1.4545,1.4661,1.4667,1.4591,1.4656,1.4667,1.4694,1.4752,1.476,1.4716,1.4716,1.4806,1.4815,1.4825,1.4899,1.4857,1.4862,1.4865,1.5037,1.5039,1.5041,0,0,0,0,0,0,1.4525,1.4539,1.4658,1.4606,1.4622,1.466,1.469,1.4696,1.4718,1.4761,1.4769,1.4731,1.4805,1.4818,1.4877,1.4902,1.4864,1.4869,1.5035,1.5038,1.504,1.5046,0,0,0,0,0,0,1.452,1.4537,1.4558,1.4607,1.4624,1.4706,1.4692,1.4699,1.4726,1.4726,1.4777,1.4785,1.4805,1.4869,1.4882,1.4909,1.4873,1.5033,1.5037,1.5039,1.5044,1.5048,1.5052,0,0,0,0,0,1.4515,1.4557,1.4559,1.4573,1.4651,1.4707,1.4718,1.4739,1.4728,1.4751,1.4779,1.4783,1.4897,1.4875,1.489,1.4918,1.5032,1.5036,1.5039,1.5042,1.5047,1.5052,0,0,0,0,0,0,1.4511,1.4563,1.4567,1.4625,1.4662,1.4709,1.4738,1.4744,1.4786,1.4784,1.481,1.4822,1.4881,1.4905,1.488,1.4979,1.4964,1.4971,1.4961,1.4966,1.4971,1.4964,1.4877,0,0,0,0,0,1.4517,1.4557,1.4601,1.4648,1.4666,1.4699,1.4724,1.4738,1.4777,1.4793,1.4826,1.4866,1.4911,1.494,1.4984,1.5047,1.506,1.5075,1.5079,1.5082,1.5088,1.5126,1.5134,1.5053,1.5053,1.5053,0,0,1.453,1.4563,1.4587,1.4648,1.4678,1.4721,1.4712,1.4757,1.4789,1.4801,1.4858,1.4884,1.4931,1.4993,1.5022,1.5015,1.5113,1.5087,1.5089,1.5093,1.5131,1.5138,1.5145,1.5056,1.5055,1.5055,0,0,1.4575,1.4603,1.4647,1.4677,1.4722,1.4744,1.4755,1.4802,1.4819,1.4878,1.4888,1.4928,1.5004,1.5038,1.5064,1.5125,1.5131,1.5139,1.5161,1.5198,1.5204,1.521,1.5234,1.5241,1.5144,1.5144,1.5144,0,1.4585,1.4648,1.4669,1.4714,1.4742,1.4753,1.4799,1.4828,1.4886,1.4906,1.4897,1.4995,1.5027,1.5098,1.5113,1.5134,1.5149,1.5133,1.5201,1.5208,1.5213,1.5236,1.5244,1.5145,1.5145,1.5145,1.5145,0,1.466,1.4704,1.4734,1.4788,1.482,1.4865,1.4895,1.4925,1.4936,1.496,1.5021,1.5059,1.5112,1.513,1.5142,1.5204,1.5199,1.5196,1.5181,1.5221,1.5243,1.5252,1.5146,1.5146,1.5146,1.5145,0,0,1.4704,1.4771,1.4782,1.4808,1.4859,1.4895,1.4942,1.4992,1.5018,1.5059,1.51,1.5166,1.5164,1.5194,1.521,1.5242,1.5291,1.5236,1.5237,1.5246,1.5364,1.5367,1.5376,1.5295,1.5296,1.5298,1.5361,0,1.4756,1.4838,1.486,1.493,1.4973,1.4985,1.5027,1.5064,1.5088,1.5129,1.5156,1.5203,1.5196,1.5215,1.5247,1.5278,1.5315,1.5273,1.5336,1.5338,1.5324,1.5387,1.539,1.5447,1.5369,1.5371,1.5372,0,1.4827,1.4868,1.4943,1.4992,1.501,1.5047,1.5096,1.5134,1.5178,1.5194,1.5229,1.5242,1.5295,1.5277,1.5351,1.5322,1.5349,1.5368,1.5371,1.5378,1.5357,1.5398,1.5466,1.5475,1.5385,1.5384,1.5383,0,1.4854,1.4928,1.4983,1.5005,1.5062,1.5088,1.5113,1.5156,1.5186,1.523,1.525,1.53,1.5328,1.5367,1.5395,1.5379,1.5467,1.5451,1.5484,1.5483,1.5502,1.55,1.5576,1.5518,1.5518,1.5517,1.5517,0,1.491,1.4955,1.4996,1.5029,1.5082,1.5108,1.516,1.5186,1.5224,1.5265,1.528,1.5318,1.5352,1.5396,1.5418,1.5477,1.5489,1.5505,1.5511,1.5504,1.5502,1.5523,1.552,1.552,1.5519,1.5519,1.5518,0,1.4948,1.4976,1.5037,1.5087,1.5101,1.5138,1.5182,1.5216,1.5241,1.5293,1.5307,1.5347,1.54,1.5431,1.5498,1.5513,1.5579,1.5582,1.5564,1.5566,1.5597,1.5594,1.569,1.5705,1.5635,1.5636,1.5636,0,1.4982,1.5018,1.5071,1.5099,1.5125,1.517,1.5201,1.5228,1.526,1.5314,1.5343,1.5396,1.5441,1.5525,1.5561,1.5613,1.5619,1.5649,1.5627,1.562,1.5621,1.5619,1.5624,1.5653,1.5653,1.5654,1.5654,0,1.504,1.5053,1.5096,1.5145,1.5181,1.5221,1.5261,1.5283,1.5318,1.5354,1.5407,1.5441,1.551,1.5564,1.5619,1.5648,1.5658,1.5661,1.5671,1.5665,1.5654,1.5662,1.5575,1.5658,1.5658,1.5658,1.5657,1.5657,1.5078,1.5111,1.5155,1.5203,1.5236,1.5274,1.5309,1.5339,1.5384,1.5441,1.5455,1.5512,1.5558,1.5633,1.5664,1.571,1.5706,1.572,1.5724,1.5728,1.5729,1.5646,1.572,1.572,1.572,1.572,1.572,0,1.5138,1.5168,1.5211,1.5267,1.5306,1.531,1.5355,1.5388,1.5437,1.5479,1.5522,1.5586,1.5638,1.5679,1.5734,1.5764,1.577,1.5778,1.5776,1.5783,1.573,1.5716,1.5772,1.5772,1.5772,1.5772,1.5772,1.5772,1.5174,1.5231,1.5249,1.5324,1.5353,1.5408,1.5434,1.547,1.5503,1.5572,1.5616,1.5642,1.5685,1.5743,1.5793,1.5804,1.5824,1.5831,1.5843,1.5792,1.5787,1.5781,1.5768,1.5835,1.5835,1.5893,1.5893,1.5894]},{"header":{"parameterUnit":"m.s-1","parameterCategory":1,"la1":30.2991,"la2":30.254,"lo1":-89.0895,"lo2":-89.0444,"dy":0.0017,"dx":0.0017,"nx":28,"ny":28,"refTime":"2025-03-18T21:00:00:Z","depth":0,"parameterNumber":3,"parameterNumberName":"V-component_of_WINDS"},"data":[0,0,0,0,0,0,0,0,0,0,0,0,0,0,0,0,0,0,0,0,0,0,0,0,0,0,0,0,0,0,0,0,0,0,0,0,0,0,0,0,0,0,0,0,0,0,0,0,0,0,0,0,0,0,0,0,0,0,4.6924,4.6924,0,4.6943,4.6944,4.6944,4.6939,4.6939,4.6938,4.6938,4.6952,4.6953,4.6954,0,0,0,0,0,0,0,0,0,0,0,0,0,4.6881,4.6882,4.6924,4.6924,4.6924,4.6943,4.6944,4.6944,4.6939,4.6939,4.6938,4.6938,4.6952,4.6953,4.6954,0,0,0,0,0,0,0,0,0,0,0,0,0,4.69,4.6882,4.6924,4.6925,4.6925,4.6943,4.6944,4.6944,4.6939,4.6939,4.6938,4.6938,4.6952,4.6953,4.6954,4.6971,0,0,4.6957,4.6957,0,0,0,0,0,0,0,0,4.6899,4.6902,4.6924,4.6925,4.6925,4.6938,4.6934,4.6953,4.6939,4.6934,4.6938,4.6937,4.6948,4.6949,4.6954,4.6972,4.6972,4.6957,4.6958,4.6958,4.6959,0,0,0,0,0,0,0,4.6898,4.6901,4.6931,4.6925,4.6925,4.6923,4.6925,4.6937,4.6943,4.6934,4.6934,4.6936,4.6948,4.6953,4.6954,4.6973,4.6957,4.6958,4.6959,4.6959,4.7011,4.7011,0,0,0,0,0,0,4.6897,4.69,4.6931,4.6932,4.6911,4.6925,4.6927,4.6934,4.6943,4.6944,4.6937,4.6936,4.6951,4.6953,4.6954,4.6978,4.6958,4.6959,4.696,4.701,4.7011,4.7012,0,0,0,0,0,0,4.6896,4.6899,4.693,4.6916,4.692,4.6926,4.6934,4.6935,4.694,4.6945,4.6946,4.6941,4.6951,4.6953,4.6968,4.6978,4.696,4.6961,4.7009,4.701,4.7011,4.7024,0,0,0,0,0,0,4.6894,4.6899,4.6906,4.6916,4.6921,4.6944,4.6935,4.6936,4.6943,4.6942,4.6949,4.695,4.695,4.6967,4.697,4.698,4.6962,4.7008,4.701,4.7011,4.7023,4.7025,4.7028,0,0,0,0,0,4.6893,4.6906,4.6906,4.691,4.6929,4.6945,4.6947,4.6949,4.6943,4.695,4.6955,4.695,4.6977,4.6969,4.6971,4.6982,4.7007,4.7009,4.7011,4.7021,4.7025,4.7028,0,0,0,0,0,0,4.6893,4.6907,4.6907,4.6924,4.6934,4.6944,4.6952,4.6952,4.6961,4.696,4.696,4.6962,4.6979,4.6982,4.6972,4.7002,4.6992,4.6994,4.6999,4.7002,4.7004,4.7003,4.6962,0,0,0,0,0,4.6896,4.6909,4.692,4.6934,4.6939,4.6945,4.6952,4.6953,4.6962,4.6965,4.697,4.6978,4.6989,4.6995,4.7005,4.7024,4.7026,4.7033,4.7035,4.7037,4.7039,4.7052,4.7056,4.7017,4.7017,4.7017,0,0,4.69,4.691,4.6917,4.6934,4.6942,4.6955,4.6948,4.6961,4.6971,4.6966,4.6983,4.6987,4.6996,4.7014,4.7022,4.7017,4.7051,4.7039,4.7041,4.7041,4.7055,4.7058,4.7062,4.7018,4.7018,4.7018,0,0,4.6915,4.6923,4.6937,4.6947,4.6959,4.6964,4.6968,4.698,4.6984,4.7001,4.6999,4.701,4.7028,4.7036,4.7042,4.7067,4.7063,4.707,4.7082,4.7095,4.7098,4.7101,4.7112,4.7116,4.7071,4.7072,4.7072,0,4.6918,4.6939,4.6944,4.6959,4.6968,4.6969,4.6984,4.6992,4.7007,4.7013,4.7008,4.7034,4.7039,4.7061,4.7068,4.7072,4.7077,4.7068,4.7098,4.7101,4.7103,4.7114,4.7117,4.7072,4.7072,4.7072,4.7072,0,4.6943,4.6958,4.6968,4.6987,4.6996,4.7011,4.7019,4.7029,4.7031,4.7037,4.7056,4.7064,4.7077,4.7083,4.7082,4.7106,4.7103,4.7098,4.7088,4.7108,4.7118,4.7121,4.7073,4.7073,4.7073,4.7073,0,0,4.6954,4.698,4.6984,4.6994,4.7011,4.7022,4.7039,4.7055,4.7064,4.7075,4.709,4.7108,4.7105,4.7112,4.7114,4.7126,4.7148,4.712,4.712,4.7126,4.7177,4.7181,4.7185,4.7147,4.7148,4.7148,4.7177,0,4.6972,4.7003,4.7011,4.7037,4.7052,4.7056,4.707,4.7083,4.709,4.7103,4.7111,4.7124,4.7119,4.7124,4.7136,4.7143,4.7158,4.7141,4.716,4.7161,4.7158,4.719,4.7193,4.7219,4.718,4.7181,4.7181,0,4.6995,4.7012,4.704,4.706,4.7067,4.708,4.7098,4.7111,4.7126,4.713,4.7142,4.7144,4.7162,4.7153,4.7178,4.7166,4.7175,4.7181,4.7182,4.7183,4.7172,4.7193,4.7227,4.7231,4.7187,4.7187,4.7186,0,4.7003,4.7032,4.7054,4.7062,4.7085,4.7095,4.7105,4.712,4.7131,4.7146,4.7154,4.717,4.7179,4.7192,4.7199,4.7191,4.7225,4.7215,4.723,4.723,4.7235,4.7235,4.7272,4.7241,4.7241,4.7241,4.7241,0,4.7021,4.7039,4.7058,4.7071,4.7093,4.7103,4.7123,4.7132,4.7147,4.7163,4.7166,4.7181,4.7189,4.7205,4.7211,4.7233,4.7236,4.7241,4.7242,4.7241,4.724,4.7246,4.7244,4.7242,4.7242,4.7241,4.7241,0,4.7032,4.7046,4.707,4.7093,4.7099,4.7113,4.7132,4.7146,4.7155,4.7175,4.7181,4.7195,4.7214,4.7224,4.7246,4.725,4.7276,4.7276,4.7272,4.7272,4.7287,4.7286,4.7329,4.7336,4.73,4.73,4.73,0,4.7043,4.7057,4.7083,4.7096,4.7107,4.7126,4.7139,4.715,4.7163,4.7185,4.7196,4.7217,4.7234,4.7266,4.7277,4.7296,4.7296,4.7311,4.7299,4.7299,4.7298,4.7298,4.73,4.7312,4.7313,4.7313,4.7313,0,4.7061,4.7069,4.7088,4.7111,4.7128,4.7145,4.7163,4.7172,4.7187,4.7202,4.7224,4.7238,4.7265,4.7286,4.7306,4.7316,4.7317,4.7318,4.7322,4.732,4.7318,4.7322,4.7278,4.7316,4.7315,4.7315,4.7315,4.7315,4.7073,4.7088,4.711,4.7132,4.7148,4.7166,4.7182,4.7195,4.7215,4.7239,4.7245,4.7269,4.7288,4.7317,4.7328,4.7346,4.7343,4.7349,4.7351,4.7352,4.7354,4.7316,4.735,4.735,4.735,4.735,4.735,0,4.7093,4.7109,4.713,4.7157,4.7175,4.7179,4.72,4.7215,4.7237,4.7256,4.7275,4.7302,4.7324,4.734,4.7362,4.7375,4.7376,4.738,4.7379,4.7382,4.7355,4.7349,4.7379,4.7379,4.7379,4.7379,4.7379,4.7379,4.7105,4.7132,4.7143,4.7178,4.7194,4.7219,4.7232,4.7249,4.7265,4.7296,4.7316,4.7327,4.7345,4.737,4.7391,4.7395,4.7404,4.7408,4.7412,4.7386,4.7383,4.738,4.7375,4.741,4.741,4.7438,4.7438,4.7438]}]]